Regional Weather Roundup
Issued by NWS New Orleans/Baton Rouge, LA

Home | Current Version | Previous Version | Text Only | Print | Product List | Glossary On
Versions: 1 2 3 4 5 6 7 8 9 10 11 12 13 14 15 16 17 18 19 20 21 22 23 24 25 26 27
000
ASUS44 KLIX 201513
RWRLIX
NEW ORLEANS REGIONAL WEATHER ROUNDUP
NATIONAL WEATHER SERVICE NEW ORLEANS LA
1000 AM CDT THU JUL 20 2017

NOTE: "FAIR" INDICATES FEW OR NO CLOUDS BELOW 12,000 FEET WITH NO
      SIGNIFICANT WEATHER AND/OR OBSTRUCTIONS TO VISIBILITY.
      SKY/WX - SKY CONDITION AND SIGNIFICANT WEATHER.
      TMP - AIR TEMPERATURE.     DP    - DEWPOINT TEMPERATURE.
      RH  - RELATIVE HUMIDITY.   PRES  - PRESSURE.
      HI  - HEAT INDEX.          WCI   - WIND CHILL INDEX.

*  THESE STATIONS ARE NOT NWS OR FAA STATIONS AND ARE NOT UNDER
   NWS QUALITY CONTROL.

LAZ038-040-048-061>063-065>067-069-201600-
SOUTHEAST LOUISIANA

CITY           SKY/WX    TMP DP  RH WIND       PRES   REMARKS
N.O. INTL ARPT MOSUNNY   88  77  69 NW7       30.12S HX 100
N.O. LAKEFRONT MOSUNNY   88  77  69 N5        30.13S HX 100
N.O. DOWNTOWN*   N/A     89  76  65 VRB3        N/A  HX 100
RESERVE*         N/A     90  77  66 CALM      30.12F HX 103
SLIDELL        SUNNY     89  76  65 NW5       30.12S HX 100
BATON ROUGE    SUNNY     87  76  69 VRB3      30.12F HX  97
BOOTHVILLE     SUNNY     87  76  69 N3        30.13S HX  97
BELLE CHASSE   NOT AVBL
BOGALUSA*      PTSUNNY   89  76  67 CALM      30.14S HX 100
GALLIANO*      SUNNY     85  76  73 N3        30.12F HX  95
NEW ROADS*       N/A     85  78  78 CALM      30.13S HX  96
GONZALES*        N/A     86  76  70 CALM      30.11F HX  96
HAMMOND*       SUNNY     88  73  62 N5        30.13S HX  96
HOUMA*         SUNNY     84  75  74 N5        30.13F
PORT FOURCHON* SUNNY     86  75  70 NW5       30.12F HX  95

$$

MSZ070-080>082-201600-
SOUTHERN MISSISSIPPI

CITY           SKY/WX    TMP DP  RH WIND       PRES   REMARKS
MCCOMB         SUNNY     89  73  59 N5        30.15R HX  97
GULFPORT       SUNNY     90  76  63 NE3       30.11S HX 101
BILOXI         SUNNY     88  77  69 CALM      30.11S HX 101
PASCAGOULA     SUNNY     90  75  61 NW5       30.11S HX 100
STENNIS ARPT*  MOSUNNY   88  77  70 VRB5      30.12S HX 100

$$

COASTAL OBSERVATIONS
LAKE AND NEARSHORE STATIONS

STATION/POSITION TIME  TEMP    WIND        PRES    WAVE
                       AIR SEA DIR/SP/G            HT/PER
                 (UTC) (F)     (DEG/KT/KT) (MB)    (FT/S)
PASCAGOULA       1448   89      40/  5/  8 1019.3
WAVELAND YACHT   1448   85 87   10/  3/  4 1019.9
GRAND ISLE       1448   86 85   10/  3/  5 1020.3
SOUTHWEST PASS   1448   86      20/  6/  8   N/A
NEW CANAL        1448   85 87  360/  4/  4 1020.0
SHELL BEACH      1448   84 88  340/  4/  5 1020.2

OFFSHORE STATIONS

STATION/POSITION TIME  TEMP    WIND        PRES    WAVE
                       AIR SEA DIR/SP/G            HT/PER
                 (UTC) (F)     (DEG/KT/KT) (MB)    (FT/S)
64 S DAUPHIN ISL 1450   85 84  300/  4/  4 1019.6    1

$$





USA.gov is the U.S. government's official web portal to all federal, state and local government web resources and services.